User: anonymous   Login
Location: Newark
(39.6172°N, 96.8533°W)
Time: 21:22:49
(UTC+00:00)
Language:

A-11 Canister half - Orbit

View from above orbital plane
View from above orbital plane
View from above satellite
View from above satellite

Ground track
Ground track

The orbit data is extracted from the following two-line orbital elements,

1    53U 60009E   20058.83927790 -.00000127 +00000-0 -40546-3 0  9997
2    53 047.2736 240.1026 0100206 114.1189 247.0118 12.17240364655096
Epoch (UTC): 27 February 2020 20:08:33
Eccentricity: 0.0100206
inclination: 47.2736°
perigee height: 1524 km
apogee height: 1684 km
right ascension of ascending node: 240.1026°
argument of perigee: 114.1189°
revolutions per day: 12.17240364
mean anomaly at epoch: 247.0118°
orbit number at epoch: 65509

The dashed part of the orbit path shows where the satellite is in the earth's shadow,  

DLR